Regional Weather Roundup
Issued by NWS

Home | Current Version | Previous Version | Text Only | Print | Product List | Glossary Off
Versions: 1 2 3 4 5 6 7 8 9 10 11 12 13 14 15 16 17 18 19 20 21 22 23 24 25 26 27

000
ASUS45 KTFX 211510
RWRMT
MONTANA REGIONAL WEATHER ROUNDUP
NATIONAL WEATHER SERVICE GREAT FALLS MT
900 AM MDT SAT OCT 21 2017

NOTE: "FAIR" INDICATES FEW OR NO CLOUDS BELOW 12000 FEET WITH NO
SIGNIFICANT WEATHER AND/OR OBSTRUCTIONS TO VISIBILITY.

MTZ001>007-043-211600-
WEST OF THE DIVIDE

CITY           SKY/WX    TMP DP  RH WIND       PRES   REMARKS
KALISPELL      CLOUDY    40  31  70 SW6       29.95R
MISSOULA       MOCLDY    38  32  79 CALM      30.01R
BUTTE          CLOUDY    32  23  69 W5        29.99R
MULLAN PASS    CLOUDY    25  23  92 SW9       29.92S WCI  15
DEER LODGE       N/A     34  28  80 CALM      29.99S
EUREKA           N/A     43  30  61 MISG      29.92R
LIBBY            N/A     39  32  75 S6        29.95R
PLAINS           N/A     39  35  85 CALM      30.00R
THOMPSON FALLS   N/A     37  36  96 CALM      30.04S
$$

MTZ008-052>055-211600-
SOUTHWEST MONTANA

CITY           SKY/WX    TMP DP  RH WIND       PRES   REMARKS
BOZEMAN        CLOUDY    37  26  64 W7        29.98R WCI  32
DILLON         CLOUDY    29  21  72 SW8       30.00R WCI  21
W YELLOWSTONE  CLOUDY    27  25  93 SW17G23   30.02R WCI  14
ENNIS          CLOUDY    36  19  51 S7G14     30.05R WCI  30
$$

MTZ009-010-012-014-046-048-049-054-211600-
EAST SLOPES AND CENTRAL MONTANA

CITY           SKY/WX    TMP DP  RH WIND       PRES   REMARKS
CUT BANK       CLEAR     37  27  67 W22       29.79R WCI  26
GREAT FALLS    CLEAR     38  25  59 SW10      29.85R WCI  31
MALMSTROM AFB  CLEAR     40  26  59 SW15      29.86R
HELENA         CLOUDY    41  25  53 W8        29.95R
BOWMANS CRNR     N/A     37  22  56 SW12      29.85R WCI  29
CHOTEAU          N/A     43  19  39 W7        29.84S
FAIRFIELD        N/A     40  21  46 SW17      29.83R
POWER            N/A     31  26  79 SW7       29.83R WCI  25
RAYNESFORD       N/A     40  22  48 SW16G31   29.86R
ULM              N/A     41  24  51 SW14G23   29.87R
$$

MTZ011-013-016-021-045-047-050-051-211600-
NORTH CENTRAL MONTANA

CITY           SKY/WX    TMP DP  RH WIND       PRES   REMARKS
HAVRE          SUNNY     37  31  78 SW12      29.77R WCI  29
LEWISTOWN      SUNNY     36  23  59 W17       29.83R WCI  26
N BAR RANCH      N/A     41  19  42 W16G22    29.83R
CHINOOK          N/A     41  30  65 W17G24    29.75R
DENTON           N/A     41  23  49 W21       29.79R
GEYSER           N/A     38  23  54 W15       29.83R WCI  29
GRASS RANGE      N/A     38  23  54 W17G28    29.78R WCI  29
JUDITH GAP       N/A     39  19  45 W23G32    29.82R WCI  28
WINIFRED         N/A     40  24  54 W15       29.79R
$$

MTZ017>020-022>027-061-062-211600-
NORTHEAST MONTANA

CITY           SKY/WX    TMP DP  RH WIND       PRES   REMARKS
GLASGOW        CLOUDY    43  39  86 W18G28    29.66R
JORDAN           N/A     45  29  53 W20G26    29.72R
SIDNEY         CLOUDY    47  38  71 W23G32    29.61R
WOLF POINT     CLOUDY    46  39  76 W22G32    29.63R
MALTA          SUNNY     43  39  87 W14G22    29.72R
PLENTYWOOD       N/A     45  36  70 W28G35    29.52R
POPLAR           N/A     45  39  81 W18G29    29.61R
SCOBEY           N/A     41  31  68 W21       29.58
$$

MTZ028>42-056>058-211600-
SOUTHCENTRAL AND SOUTHEAST MONTANA

CITY           SKY/WX    TMP DP  RH WIND       PRES   REMARKS
BAKER          CLOUDY    47  31  53 NW30G41   29.70R
BILLINGS       MOSUNNY   45  21  38 W21G29    29.87R
LIVINGSTON     CLOUDY    42  17  36 SW20G33   29.93R
MILES CITY     CLOUDY    46  31  55 W24G36    29.76R
BIG TIMBER     MOSUNNY   41  19  42 W23G30    29.92
EKALAKA          N/A     42  26  53 W21       29.75R
FORSYTH          N/A     46  23  39 W14G21    29.79R
HARLOWTON        N/A     38  22  52 W28G35    29.85R WCI  26
LAUREL           N/A     46  18  31 W22G33    29.88R
$$

REGIONAL REPORTS...DAKOTAS

CITY           SKY/WX    TMP DP  RH WIND       PRES   REMARKS
WILLISTON      PTSUNNY   46  37  71 SW17        N/A
MINOT          CLOUDY    50  39  66 W17G31    29.47R
DICKINSON      CLOUDY    47  36  65 W25G40    29.59R
BEACH          CLOUDY    45  34  65 W28G35    29.69R
CROSBY         PTSUNNY   46  41  81 W15       29.48S
TIOGA          CLOUDY    45  41  87 W24G36    29.51R
WATFORD CITY   CLOUDY    45  37  76 W25G32    29.57R
BISMARCK       LGT RAIN  47  43  86 W20G26    29.57R
GRAND FORKS    CLOUDY    62  43  49 SW8       29.42R
FARGO          CLOUDY    61  45  55 W9        29.47R
BUFFALO SD       N/A     46  28  49 W29G39    29.64R
RAPID CITY     CLOUDY    48  24  39 NW16      29.77R
$$

REGIONAL REPORTS...WYOMING/IDAHO/WASHINGTON

CITY           SKY/WX    TMP DP  RH WIND       PRES   REMARKS
GILLETTE       MOSUNNY   43  17  35 NW15G23   29.85R
SHERIDAN       SUNNY     44  19  36 W8        29.86R
BUFFALO WY     SUNNY     43  11  27 W6        29.87R
CODY           SUNNY     40  17  39 SW14      29.93R
YELLOWSTONE LA   N/A     23  20  88 W6        30.02R WCI  16
IDAHO FALLS    PTSUNNY   33  29  85 SW13      30.12R WCI  24
SALMON         CLOUDY    32  31  96 SE3       30.07R
BOISE          MOCLDY    38  32  79 SE8       30.13S
SPOKANE        MOCLDY    34  32  92 S9        29.96S WCI  27
$$

REGIONAL REPORTS...ALBERTA

CITY           SKY/WX    TMP DP  RH WIND       PRES   REMARKS
EDMONTON       CLEAR     28  27  93 W8        29.65R WCI  20
CALGARY        PTCLDY    30  23  74 VRB2      29.69R
LETHBRIDGE     PTCLDY    41  27  56 W20G25    29.76R
MEDICINE HAT   PTCLDY    37  34  87 S6        29.72R
$$

REGIONAL REPORTS...SASKATCHEWAN

CITY           SKY/WX    TMP DP  RH WIND       PRES   REMARKS
SWIFT CURRENT  LGT RAIN  39  37  93 NW23G31   29.58R WCI  29
REGINA         CLOUDY    45  39  81 W21G26    29.42R
SASKATOON      LGT RAIN  41  39  93 NW14G22   29.47R
$$




USA.gov is the U.S. government's official web portal to all federal, state and local government web resources and services.